Flag Weather past 2 weeks in Huntington Beach, California, U.S.A.

Now
60 °F

Clear.


Feels Like: 60 °F
Forecast: 53 / 80 °F
Wind: 3 mph from Northeast

Location: John Wayne Airport-Orange County Airport

Current Time: Nov 26, 2014 at 12:00:01 AM

Latest Report: Nov 25, 2014 at 10:53 PM


Visibility: 10 mi

Pressure: 30.27 "Hg

Humidity: 35%

Dew point: 32 °F

Location of Huntington BeachLocation

Historic Weather in Huntington Beach — Graph

°F

Huntington Beach temperature yesterday

Maximum temperature yesterday: 83 °F (at 12:53 PM)
Minimum temperature yesterday: 53 °F (at 5:53 AM)
Average temperature yesterday: 67 °F

Past Weeks' High & Low Weather Summary

 TemperatureHumidityPressure
High85 °F (Nov 23, 12:53 PM)85% (Nov 14, 2:53 AM)30.37 "Hg (Nov 14, 2:53 AM)
Low53 °F (Nov 18, 4:53 AM)2% (Nov 23, 1:53 PM)29.89 "Hg (Nov 10, 10:53 PM)
Average67 °F48%30.07 "Hg
* Reported Nov 10 10:53 PM — Nov 25 10:53 PM, Huntington Beach, Weather by CustomWeather, © 2014

Note: Actual official high and low records may vary slightly from our data, if they occured in-between our weather recording intervals... More about our weather records

Advertising

Huntington Beach weather history for previous 24 hours

 ConditionsComfort  
Time TempWeatherWind HumidityBarometerVisibility
10:53 PM
Nov 25
60 °FClear.3 mph35%30.27 "Hg10 mi
9:53 PM62 °FClear.No wind34%30.27 "Hg10 mi
8:53 PM64 °FClear.No wind32%30.28 "Hg10 mi
7:53 PM65 °FClear.No wind31%30.28 "Hg10 mi
6:53 PM69 °FClear.No wind23%30.27 "Hg10 mi
5:53 PM71 °FClear.No wind21%30.27 "Hg10 mi
4:53 PM73 °FClear.No wind19%30.25 "Hg10 mi
3:53 PM78 °FSunny.6 mph10%30.24 "Hg10 mi
2:53 PM81 °FSunny.7 mph10%30.24 "Hg10 mi
1:53 PM82 °FSunny.7 mph9%30.25 "Hg10 mi
12:53 PM83 °FSunny.6 mph6%30.27 "Hg10 mi
11:53 AM81 °FPassing clouds.5 mph5%30.30 "Hg10 mi
10:53 AM79 °FSunny.6 mph9%30.34 "Hg10 mi
9:53 AM73 °FSunny.No wind13%30.36 "Hg10 mi
8:53 AM66 °FSunny.No wind19%30.37 "Hg10 mi
7:53 AM60 °FSunny.No wind25%30.37 "Hg10 mi
6:53 AM53 °FSunny.5 mph35%30.35 "Hg10 mi
5:53 AM53 °FPassing clouds.No wind35%30.34 "Hg10 mi
4:53 AM54 °FClear.No wind34%30.32 "Hg10 mi
3:53 AM54 °FClear.No wind33%30.32 "Hg10 mi
2:53 AM57 °FClear.No wind28%30.31 "Hg10 mi
1:53 AM58 °FClear.No wind28%30.31 "Hg10 mi
12:53 AM59 °FClear.No wind23%30.30 "Hg10 mi
Weather by CustomWeather, © 2014

See weather overviewHow to use our weather pages